Погода в Созимском

Россия / Кировская область     59°44′57″N   52°15′07″E
темп.,
°C
ветер,
м/с
пор.,
м/с
влажн.,
%
обл.,
%
осадки,
мм/ч
давл.,
гПа
погр.,
м
24 мая, вт
вт2400:00+1ююв2599100 0.1 1000391
03:00+1ююв2599100 0.2 1001439
06:00+2юв24100100 0.5 1002204
09:00+2юв2498100 1.0 1003256
12:00+5ююв4686100 0.6 1005962
15:00+6ююз367596 1.3 10061345
18:00+6ююв247683 0.2 1008598
21:00+3в2693100 0.6 1008182
25 мая, ср
ср2500:00+4ю369990 1.3 1008502
03:00+1ююв2298100 1.3 100943
06:00+5в1292100 0.0 1009284
09:00+8ссв228198 0.0 1008709
12:00+11ююв136788 0.4 10071073
15:00+9зсз1185100 1.6 1007145
18:00+9з359290 0.3 1006390
21:00+5з3798100 0.3 1006224
26 мая, чт
чт2600:00+5зсз2597100 0.0 1005160
03:00+4з2597100 0.3 1005202
06:00+2зюз4898100 6.4 1005391
09:00+3юз3898100 8.9 1005540
12:00+4юз41098100 2.3 1006648
15:00+7юз478492 2.8 10071089
18:00+7юз488898 1.0 1008782
21:00+3ю27965 1.1 1008136
27 мая, пт
пт2700:00+1юв239713 0.0 100862
03:00+1ююв269889 0.1 1008169
06:00+4в2599100 0.3 1007297
09:00+7ююз358238 0.4 1006783
12:00+9юв367861 0.1 1005838
15:00+9юв4783100 0.2 1004605
18:00+7вюв41298100 1.3 1003583
21:00+9юв41198100 2.3 1002586
28 мая, сб
сб2800:00+9юв41097100 0.5 1000601
03:00+9ююв41197100 2.1 1000755
06:00+9ю51197100 1.6 1001793
09:00+9ююз499695 1.9 1004673
12:00+13ююз597883 0.5 10041102
15:00+13ю51090100 2.1 1004863
18:00+11ююв41192100 1.5 10031000
21:00+10ююв51496100 4.4 10021162